Flag for China Weather past 2 weeks in Guilin, Guangxi, China

Now
59 °F

Sunny.


Feels Like: 60 °F
Forecast: 28 / 64 °F
Wind: 3 mph from Northeast

Location: Guilin Airport

Current Time: Dec 22, 2014 at 5:00:33 PM

Latest Report: Dec 22, 2014 at 4:00 PM


Visibility: 10 mi

Pressure: 30.18 "Hg

Humidity: 12%

Dew point: 7 °F

Location of GuilinLocation

Historic Weather in Guilin — Graph

°F

Guilin temperature yesterday

Maximum temperature yesterday: 57 °F (at 2:00 PM)
Minimum temperature yesterday: 37 °F (at 3:00 AM)
Average temperature yesterday: 46 °F

Past Weeks' High & Low Weather Summary

 TemperatureHumidityPressure
High64 °F (Dec 20, 4:00 PM)100% (Dec 18, 7:00 AM)30.57 "Hg (Dec 18, 7:00 AM)
Low32 °F (Dec 18, 6:00 AM)11% (Dec 17, 2:00 PM)30.07 "Hg (Dec 20, 4:00 PM)
Average49 °F60%30.33 "Hg
* Reported Dec 7 3:00 PM — Dec 22 3:00 PM, Guilin, Weather by CustomWeather, © 2014

Note: Actual official high and low records may vary slightly from our data, if they occured in-between our weather recording intervals... More about our weather records

Advertising

Guilin weather history for previous 24 hours

 ConditionsComfort  
Time TempWeatherWind HumidityBarometerVisibility
3:00 PM
Dec 22
59 °FSunny.1 mph11%30.21 "Hg10 mi
2:00 PM57 °FSunny.1 mph14%30.24 "Hg10 mi
1:00 PM57 °FSunny.3 mph13%30.30 "Hg10 mi
12:00 PM54 °FSunny.3 mph22%30.36 "Hg10 mi
11:00 AM50 °FSunny.1 mph32%30.39 "Hg10 mi
10:00 AM45 °FSunny.1 mph57%30.42 "Hg10 mi
9:00 AM37 °FClear.1 mph87%30.42 "Hg4 mi
8:00 AM32 °FIce fog.1 mph93%30.39 "Hg3 mi
7:00 AM32 °FIce fog.3 mph93%30.39 "Hg2 mi
6:00 AM32 °FIce fog.3 mph93%30.39 "Hg2 mi
5:00 AM34 °FFog.3 mph93%30.39 "Hg2 mi
4:00 AM34 °FFog.3 mph93%30.42 "Hg3 mi
3:00 AM34 °FFog.3 mph93%30.42 "Hg2 mi
2:00 AM36 °FClear.3 mph81%30.45 "Hg4 mi
1:00 AM36 °FClear.1 mph75%30.45 "Hg4 mi
12:00 AM37 °FClear.1 mph75%30.45 "Hg4 mi
11:00 PM
Dec 21
39 °FClear.1 mph61%30.45 "Hg4 mi
10:00 PM43 °FClear.3 mph46%30.45 "Hg5 mi
9:00 PM45 °FClear.6 mph37%30.45 "Hg5 mi
8:00 PM48 °FClear.8 mph32%30.42 "Hg5 mi
7:00 PM50 °FClear.13 mph30%30.42 "Hg5 mi
6:00 PM52 °FClear.15 mph30%30.39 "Hg4 mi
5:00 PM54 °FClear.15 mph30%30.39 "Hg4 mi
Weather by CustomWeather, © 2014

See weather overviewHow to use our weather pages